Printer-friendly version
Follow the MPC on Twitter Follow the MPC on Facebook The MPC blog
Minor Planet Center

MPEC 2010-N51 : 2010 NU1

The following Minor Planet Electronic Circular may be linked-to from your own Web pages, but must not otherwise be redistributed electronically.

A form allowing access to any MPEC is at the bottom of this page.


Read MPEC 2010-N50 Read MPEC 2010-N52


M.P.E.C. 2010-N51                                Issued 2010 July 11, 23:56 UT

     The Minor Planet Electronic Circulars contain information on unusual
         minor planets and routine data on comets.  They are published
   on behalf of Commission 20 of the International Astronomical Union by the
          Minor Planet Center, Smithsonian Astrophysical Observatory,
                          Cambridge, MA 02138, U.S.A.

             Prepared using the Tamkin Foundation Computer Network

                              MPC@CFA.HARVARD.EDU
       URL http://www.minorplanetcenter.org/iau/mpc.html  ISSN 1523-6714

                                   2010 NU1

Observations:
     K10N01U* S2010 07 06.93767 14 07 37.94 +24 42 43.5          22   R EN051C51
     K10N01U  s2010 07 06.93767 1 - 6012.3355 -  817.0255 + 3297.8545   EN051C51
     K10N01U  S2010 07 07.00389 14 07 58.86 +24 35 51.7                 EN051C51
     K10N01U  s2010 07 07.00389 1 - 5992.7082 -  815.4250 + 3333.3763   EN051C51
     K10N01U  S2010 07 07.06998 14 08 19.50 +24 28 59.0                 EN051C51
     K10N01U  s2010 07 07.06998 1 - 6010.9478 -  831.3731 + 3296.1870   EN051C51
     K10N01U  S2010 07 07.26837 14 09 21.49 +24 08 26.9                 EN051C51
     K10N01U  s2010 07 07.26837 1 - 6027.1851 -  860.6516 + 3258.8764   EN051C51
     K10N01U  S2010 07 07.33446 14 09 42.02 +24 01 37.1                 EN051C51
     K10N01U  s2010 07 07.33446 1 - 6044.7083 -  876.3833 + 3222.3734   EN051C51
     K10N01U  S2010 07 07.33458 14 09 42.03 +24 01 37.3                 EN051C51
     K10N01U  s2010 07 07.33458 1 - 6007.7360 -  858.5684 + 3295.1926   EN051C51
     K10N01U KC2010 07 10.12544814 23 05.06 +19 24 54.6          22.5 V EN051H21
     K10N01U KC2010 07 10.14457814 23 10.10 +19 23 04.7                 EN051H21
     K10N01U KC2010 07 10.16404414 23 15.20 +19 21 12.2          22.3 V EN051H21
     K10N01U 2C2010 07 10.33844414 24 01.725+19 04 48.17         21.9 R EN051568
     K10N01U 2C2010 07 10.34151214 24 02.525+19 04 30.77         22.1 R EN051568

Observer details:
568 Mauna Kea.  Observer J. Luthe [queue observer].  Measurer D. J. Tholen.
    3.6-m Canada-France-Hawaii Telescope.
H21 Astronomical Research Observatory, Westfield.  Observer R. Holmes.  0.81-m
    f/4.5 astrograph + CCD.
C51 WISE.  Measurers A. Mainzer, E. Wright, J. Bauer, T. Grav, J. Dailey, J.
    Masiero, R. Cutri, R. McMillan, R. Walker.
    (http://wise.ssl.berkeley.edu/mission_sci.html)

Orbital elements:
2010 NU1                                                 Earth MOID = 0.3183 AU
Epoch 2010 July 23.0 TT = JDT 2455400.5                 MPC
M  29.07183              (2000.0)            P               Q
n   0.38464736     Peri.   37.34147     -0.72002957     -0.46378562
a   1.8725247      Node   106.92579     +0.43123678     -0.88183769
e   0.7529538      Incl.   32.65442     +0.54368396     +0.08523607
P   2.56           H   21.2           G   0.15           U   9
Residuals in seconds of arc
100706 C51  0.5+  0.6-    100707 C51  0.3+  0.9-    100710 H21  0.5-  1.2-
100707 C51  0.8+  1.0+    100707 C51  0.1-  0.3+    100710 568  0.4+  0.2+
100707 C51  1.1-  0.1+    100710 H21  0.0   0.6+    100710 568  0.4+  0.2+
100707 C51  0.3-  0.0     100710 H21  0.0   0.1+

Ephemeris:
2010 NU1                 a,e,i = 1.87, 0.75, 33                  q = 0.4626
Date    TT    R. A. (2000) Decl.     Delta      r     Elong.  Phase     V
2010 07 03    13 44.37   +31 50.6    0.493    1.124    89.3    64.7    22.2
2010 07 13    14 35.12   +15 04.3    0.589    1.254    99.3    53.1    22.5
2010 07 23    15 07.77   +03 03.3    0.733    1.378   102.8    46.0    23.0
2010 08 02    15 32.30   -05 09.8    0.905    1.495   102.2    41.6    23.5

Carl W. Hergenrother         (C) Copyright 2010 MPC           M.P.E.C. 2010-N51

Read MPEC 2010-N50 Read MPEC 2010-N52


MPEC number:

Enter an MPEC number in one of the following forms:

  • 1997-B01 (the full form)
  • J97B01 (the packed version of the full form)
  • B01 (the abbreviated form)

Valid HTML 4.01!